When you browse on this site, cookies collect data to enhance your experience and personalize the content and advertising you see.
Visit our Privacy Policy to learn more. By continuing to use the site, you agree to this use of cookies and data.
  • In Hungary
  • List of Countries
  • For 7 days
  • Water Temperature
  • Satellite Maps
  • Weather Map
  • News
  • Weather Widgets
  • user-avatar
    Login

    Hourly Weather Novye Sanzhary

    Today, 24 April, Wednesday

    Time Temperature Precipitation Wind Pressure Humidity
    00:00 +13°C° 0 mm 1 mps 764 mmHg 49%
    01:00 +12°C° 0 mm 1 mps 764 mmHg 51%
    02:00 +12°C° 0 mm 1 mps 764 mmHg 49%
    03:00 +12°C° 0 mm 1 mps 764 mmHg 51%
    04:00 +11°C° 0 mm 1 mps 764 mmHg 53%
    05:00 +11°C° 0 mm 1 mps 764 mmHg 54%
    06:00 +13°C° 0 mm 1 mps 765 mmHg 50%
    07:00 +15°C° 0 mm 1 mps 765 mmHg 46%
    08:00 +18°C° 0 mm 1 mps 764 mmHg 41%
    09:00 +20°C° 0 mm 1 mps 764 mmHg 37%
    10:00 +21°C° 0 mm 1 mps 764 mmHg 32%
    11:00 +23°C° 0 mm 1 mps 764 mmHg 27%
    12:00 +23°C° 0 mm 1 mps 764 mmHg 27%
    13:00 +24°C° 0 mm 1 mps 764 mmHg 26%
    14:00 +24°C° 0 mm 1 mps 764 mmHg 26%
    15:00 +24°C° 0 mm 1 mps 763 mmHg 27%
    16:00 +23°C° 0 mm 1 mps 763 mmHg 29%
    17:00 +23°C° 0 mm 1 mps 763 mmHg 31%
    18:00 +22°C° 0 mm 1 mps 763 mmHg 35%
    19:00 +20°C° 0 mm 1 mps 763 mmHg 38%
    20:00 +18°C° 0 mm 1 mps 763 mmHg 42%
    21:00 +16°C° 0 mm 1 mps 763 mmHg 45%
    22:00 +16°C° 0 mm 1 mps 764 mmHg 47%
    23:00 +15°C° 0 mm 1 mps 764 mmHg 49%

    Tomorrow, 25 April, Thursday

    Time Temperature Precipitation Wind Pressure Humidity
    00:00 +15°C° 0 mm 1 mps 764 mmHg 51%
    01:00 +14°C° 0 mm 1 mps 764 mmHg 53%
    02:00 +14°C° 0 mm 1 mps 764 mmHg 55%
    03:00 +13°C° 0 mm 1 mps 764 mmHg 56%
    04:00 +13°C° 0 mm 2 mps 764 mmHg 58%
    05:00 +12°C° 0 mm 2 mps 764 mmHg 60%
    06:00 +14°C° 0 mm 2 mps 764 mmHg 56%
    07:00 +16°C° 0 mm 2 mps 764 mmHg 52%
    08:00 +18°C° 0 mm 2 mps 764 mmHg 49%
    09:00 +21°C° 0 mm 1 mps 764 mmHg 45%
    10:00 +22°C° 0 mm 1 mps 764 mmHg 40%
    11:00 +22°C° 0 mm 0 mps 764 mmHg 36%
    12:00 +22°C° 0 mm 0 mps 763 mmHg 36%
    13:00 +22°C° 0 mm 0 mps 763 mmHg 35%
    14:00 +22°C° 0 mm 0 mps 763 mmHg 35%
    15:00 +22°C° 0 mm 0 mps 762 mmHg 37%
    16:00 +22°C° 0 mm 0 mps 762 mmHg 38%
    17:00 +21°C° 0 mm 0 mps 762 mmHg 40%
    18:00 +20°C° 0 mm 0 mps 762 mmHg 43%
    19:00 +18°C° 0 mm 0 mps 762 mmHg 46%
    20:00 +17°C° 0 mm 0 mps 762 mmHg 49%
    21:00 +16°C° 0 mm 0 mps 762 mmHg 50%
    22:00 +18°C° 0 mm 1 mps 762 mmHg 52%
    23:00 +16°C° 0 mm 1 mps 762 mmHg 53%

    Day after tomorrow, 26 April, Friday

    Time Temperature Precipitation Wind Pressure Humidity
    00:00 +16°C° 0 mm 1 mps 761 mmHg 55%
    01:00 +15°C° 0 mm 1 mps 761 mmHg 56%
    02:00 +15°C° 0 mm 1 mps 761 mmHg 58%
    03:00 +15°C° 0 mm 1 mps 761 mmHg 60%
    04:00 +14°C° 0 mm 1 mps 761 mmHg 62%
    05:00 +14°C° 0 mm 1 mps 761 mmHg 64%
    06:00 +16°C° 0 mm 1 mps 761 mmHg 60%
    07:00 +16°C° 0 mm 0 mps 761 mmHg 57%
    08:00 +18°C° 0 mm 0 mps 761 mmHg 53%
    09:00 +19°C° 0 mm 0 mps 761 mmHg 49%
    10:00 +22°C° 0 mm 1 mps 760 mmHg 46%
    11:00 +23°C° 0 mm 1 mps 760 mmHg 43%
    12:00 +23°C° 0 mm 1 mps 760 mmHg 40%
    13:00 +23°C° 0 mm 1 mps 760 mmHg 38%
    14:00 +24°C° 0 mm 1 mps 759 mmHg 36%
    15:00 +23°C° 0 mm 1 mps 759 mmHg 40%
    16:00 +23°C° 0 mm 1 mps 759 mmHg 44%
    17:00 +22°C° 0 mm 1 mps 758 mmHg 48%
    18:00 +19°C° 0 mm 0 mps 758 mmHg 50%
    19:00 +18°C° 0 mm 0 mps 758 mmHg 51%
    20:00 +17°C° 0 mm 0 mps 759 mmHg 52%
    21:00 +16°C° 0 mm 0 mps 758 mmHg 54%
    22:00 +16°C° 0 mm 0 mps 758 mmHg 55%
    23:00 +15°C° 0 mm 0 mps 758 mmHg 57%

    27 April, Saturday

    Time Temperature Precipitation Wind Pressure Humidity
    00:00 +16°C° 0 mm 1 mps 758 mmHg 59%
    01:00 +15°C° 0 mm 1 mps 758 mmHg 61%
    02:00 +14°C° 0 mm 1 mps 758 mmHg 64%
    03:00 +14°C° 0.1 mm 1 mps 758 mmHg 66%
    04:00 +14°C° 0.1 mm 1 mps 757 mmHg 68%
    05:00 +13°C° 0.1 mm 1 mps 757 mmHg 70%
    06:00 +15°C° 0 mm 1 mps 757 mmHg 64%
    07:00 +18°C° 0 mm 1 mps 757 mmHg 58%
    08:00 +20°C° 0 mm 1 mps 757 mmHg 52%
    09:00 +20°C° 0 mm 2 mps 757 mmHg 48%
    10:00 +23°C° 0 mm 2 mps 756 mmHg 44%
    11:00 +24°C° 0 mm 3 mps 756 mmHg 39%
    12:00 +24°C° 0 mm 3 mps 756 mmHg 40%
    13:00 +24°C° 0 mm 3 mps 755 mmHg 41%
    14:00 +24°C° 0 mm 3 mps 755 mmHg 41%
    15:00 +24°C° 0 mm 3 mps 754 mmHg 43%
    16:00 +22°C° 0 mm 3 mps 754 mmHg 44%
    17:00 +22°C° 0 mm 3 mps 754 mmHg 46%
    18:00 +21°C° 0 mm 3 mps 754 mmHg 50%
    19:00 +19°C° 0 mm 3 mps 754 mmHg 55%
    20:00 +17°C° 0 mm 3 mps 754 mmHg 59%
    21:00 +17°C° 0 mm 3 mps 753 mmHg 61%
    22:00 +16°C° 0 mm 3 mps 753 mmHg 63%
    23:00 +15°C° 0 mm 4 mps 753 mmHg 65%

    28 April, Sunday

    Time Temperature Precipitation Wind Pressure Humidity
    00:00 +14°C° 0 mm 3 mps 753 mmHg 66%
    01:00 +14°C° 0 mm 3 mps 753 mmHg 68%
    02:00 +13°C° 0 mm 3 mps 753 mmHg 70%
    03:00 +13°C° 0 mm 3 mps 753 mmHg 71%
    04:00 +14°C° 0 mm 2 mps 753 mmHg 73%
    05:00 +13°C° 0 mm 2 mps 752 mmHg 74%
    06:00 +15°C° 0 mm 2 mps 752 mmHg 68%
    07:00 +17°C° 0 mm 3 mps 752 mmHg 63%
    08:00 +19°C° 0 mm 3 mps 752 mmHg 57%
    09:00 +20°C° 0 mm 4 mps 752 mmHg 53%
    10:00 +21°C° 0 mm 4 mps 752 mmHg 48%
    11:00 +22°C° 0 mm 5 mps 752 mmHg 44%
    12:00 +23°C° 0 mm 5 mps 751 mmHg 42%
    13:00 +23°C° 0 mm 4 mps 751 mmHg 41%
    14:00 +25°C° 0 mm 4 mps 750 mmHg 39%
    15:00 +23°C° 0 mm 4 mps 750 mmHg 40%
    16:00 +24°C° 0 mm 3 mps 750 mmHg 41%
    17:00 +24°C° 0 mm 3 mps 750 mmHg 43%
    18:00 +21°C° 0 mm 2 mps 750 mmHg 45%
    19:00 +19°C° 0 mm 2 mps 750 mmHg 47%
    20:00 +19°C° 0 mm 1 mps 750 mmHg 50%
    21:00 +18°C° 0 mm 1 mps 750 mmHg 50%
    22:00 +18°C° 0 mm 1 mps 750 mmHg 49%
    23:00 +16°C° 0 mm 1 mps 750 mmHg 49%

    29 April, Monday

    Time Temperature Precipitation Wind Pressure Humidity
    00:00 +16°C° 0 mm 2 mps 750 mmHg 52%
    01:00 +15°C° 0 mm 2 mps 751 mmHg 55%
    02:00 +15°C° 0 mm 2 mps 751 mmHg 58%
    03:00 +14°C° 0 mm 2 mps 751 mmHg 67%
    04:00 +13°C° 0 mm 3 mps 751 mmHg 77%
    05:00 +13°C° 0 mm 3 mps 751 mmHg 86%
    06:00 +13°C° 0.2 mm 4 mps 752 mmHg 85%
    07:00 +13°C° 0.2 mm 5 mps 752 mmHg 85%
    08:00 +13°C° 0.2 mm 6 mps 752 mmHg 84%
    09:00 +11°C° 0.2 mm 6 mps 753 mmHg 82%
    10:00 +11°C° 0.2 mm 6 mps 753 mmHg 80%
    11:00 +10°C° 0.2 mm 7 mps 753 mmHg 79%
    12:00 +10°C° 0.2 mm 7 mps 753 mmHg 77%
    13:00 +10°C° 0.2 mm 7 mps 754 mmHg 76%
    14:00 +10°C° 0.2 mm 7 mps 754 mmHg 75%
    15:00 +10°C° 0 mm 7 mps 754 mmHg 73%
    16:00 +10°C° 0 mm 7 mps 754 mmHg 71%
    17:00 +10°C° 0 mm 7 mps 754 mmHg 69%
    18:00 +9°C° 0 mm 6 mps 755 mmHg 70%
    19:00 +9°C° 0 mm 5 mps 755 mmHg 70%
    20:00 +9°C° 0 mm 5 mps 756 mmHg 70%
    21:00 +8°C° 0.1 mm 5 mps 756 mmHg 69%
    22:00 +8°C° 0.1 mm 6 mps 756 mmHg 68%
    23:00 +6°C° 0.1 mm 7 mps 757 mmHg 67%
    Show more